Odiham, United Kingdom

8:53 AM BST on March 28, 2017 (GMT +0100)
Odiham Air Base

Weather History for EGVO - March, 2014

Change the Weather History Date:

Saturday, March 22, 2014

  Actual Average Record
Temperature  
Mean Temperature 44 °F -  
Max Temperature 51 °F - - ()
Min Temperature 37 °F - - ()
Degree Days  
Heating Degree Days 21    
Moisture  
Dew Point 34 °F    
Average Humidity 71    
Maximum Humidity 93    
Minimum Humidity 25    
Precipitation  
Precipitation 0.02 in - - ()
Sea Level Pressure  
Sea Level Pressure 29.50 in    
Wind  
Wind Speed 14 mph ()    
Max Wind Speed 26 mph    
Max Gust Speed 28 mph    
Visibility 10.1 miles    
Events Rain    
T = Trace of Precipitation, MM = Missing Value Source: Averaged Metar Reports

Daily Weather History Graph

Daily Weather History Graph

Search for Another Location

Airport or City:

Trip Planner

Search our weather history database for the weather conditions in past years. The results will help you decide how hot, cold, wet, or windy it might be!

Date:

Astronomy

Mar. 22, 2014 Rise Set
Actual Time 6:02 AM GMT 6:19 PM GMT
Civil Twilight 5:29 AM GMT 6:53 PM GMT
Nautical Twilight 4:50 AM GMT 7:32 PM GMT
Astronomical Twilight 4:09 AM GMT 8:13 PM GMT
Moon No Moon Rise 8:59 AM GMT (3/22)
Length of Visible Light 13h 23m
Length of Day
12h 17m
Waning Gibbous, 67% of the Moon is Illuminated
Mar 22
Waning Gibbous
Mar 24
Last Quarter
Mar 30
New
Apr 7
First Quarter
Apr 15
Full

Hourly Weather History & Observations

Time (GMT) Temp. Windchill Dew Point Humidity Pressure Visibility Wind Dir Wind Speed Gust Speed Precip Events Conditions
12:00 AM 43 °F - 40 °F 83% 29.52 in 4 mi SSW 26.5 mph - - Rain Heavy Rain Showers
12:50 AM 41.0 °F 31.9 °F 39.2 °F 93% 29.47 in 6.2 mi SW 19.6 mph - N/A Rain Rain
1:00 AM 41 °F - 38 °F 87% 29.52 in 9 mi SW 19.6 mph - - Rain Light Rain Showers
1:50 AM 41.0 °F 34.3 °F 37.4 °F 87% 29.47 in 6.2 mi SW 11.5 mph - N/A   Mostly Cloudy
2:00 AM 40 °F - 38 °F 88% 29.49 in 19 mi SW 11.5 mph - - Rain Light Rain Showers
2:50 AM 39.2 °F 31.2 °F 37.4 °F 93% 29.44 in - SSW 13.8 mph - N/A   Clear
3:00 AM 40 °F - 37 °F 87% 29.48 in 19 mi SSW 13.8 mph - -   Partly Cloudy
3:50 AM 39.2 °F 31.2 °F 37.4 °F 93% 29.44 in - SW 13.8 mph - N/A   Clear
4:00 AM 39 °F - 36 °F 87% 29.48 in 19 mi SW 13.8 mph - -   Partly Cloudy
4:50 AM 39.2 °F 30.5 °F 35.6 °F 87% 29.47 in 6.2 mi SW 16.1 mph - N/A   Partly Cloudy
5:00 AM 38 °F - 35 °F 84% 29.50 in 25 mi SW 16.1 mph - -   Scattered Clouds
5:50 AM 37.4 °F 29.8 °F 33.8 °F 87% 29.47 in 6.2 mi SW 11.5 mph - N/A   Partly Cloudy
6:00 AM 37 °F - 34 °F 85% 29.50 in 22 mi SW 11.5 mph - -   Partly Cloudy
6:50 AM 37.4 °F 29.3 °F 35.6 °F 93% 29.47 in 6.2 mi SW 12.7 mph - N/A   Partly Cloudy
7:00 AM 38 °F - 35 °F 83% 29.51 in 19 mi SW 12.7 mph - -   Scattered Clouds
7:50 AM 39.2 °F 31.2 °F 35.6 °F 87% 29.47 in 6.2 mi SW 13.8 mph - N/A   Partly Cloudy
8:00 AM 40 °F - 35 °F 75% 29.51 in 19 mi SW 13.8 mph - -   Scattered Clouds
8:50 AM 42.8 °F 35.1 °F 35.6 °F 76% 29.50 in 6.2 mi SW 16.1 mph - N/A   Mostly Cloudy
9:00 AM 42 °F - 35 °F 68% 29.52 in 19 mi SW 16.1 mph - -   Scattered Clouds
9:50 AM 44.6 °F 37.8 °F 33.8 °F 66% 29.50 in 6.2 mi SW 15.0 mph - N/A   Partly Cloudy
10:00 AM 44 °F - 34 °F 59% 29.52 in 25 mi SW 15.0 mph - -   Scattered Clouds
10:50 AM 44.6 °F 36.9 °F 32.0 °F 61% 29.50 in 6.2 mi SW 18.4 mph - N/A   Mostly Cloudy
11:00 AM 44 °F - 31 °F 49% 29.52 in 25 mi SW 18.4 mph - -   Mostly Cloudy
11:50 AM 48.2 °F - 28.4 °F 46% 29.50 in 6.2 mi SW 16.1 mph - N/A   Scattered Clouds
12:00 PM 47 °F - 29 °F 37% 29.51 in 28 mi SW 16.1 mph - -   Partly Cloudy
12:50 PM 48.2 °F - 28.4 °F 46% 29.47 in 6.2 mi WSW 15.0 mph - N/A   Scattered Clouds
1:00 PM 49 °F - 29 °F 33% 29.50 in 25 mi WSW 15.0 mph - -   Partly Cloudy
1:50 PM 48.2 °F - 24.8 °F 40% 29.47 in 6.2 mi SW 17.3 mph - N/A   Scattered Clouds
2:00 PM 49 °F - 24 °F 25% 29.50 in 28 mi SW 17.3 mph - -   Partly Cloudy
2:50 PM 50.0 °F - 24.8 °F 37% 29.47 in 6.2 mi SW 18.4 mph - N/A   Scattered Clouds
3:00 PM 50 °F - 25 °F 25% 29.49 in 25 mi SW 18.4 mph - -   Partly Cloudy
3:50 PM 48.2 °F - 33.8 °F 58% 29.47 in 6.2 mi SW 13.8 mph - N/A   Mostly Cloudy
4:00 PM 47 °F - 33 °F 46% 29.51 in 19 mi SW 13.8 mph - -   Mostly Cloudy
4:50 PM 42.8 °F 38.6 °F 37.4 °F 81% 29.50 in 6.2 mi SSW 6.9 mph - N/A   Mostly Cloudy
5:00 PM 42 °F - 37 °F 78% 29.52 in 25 mi SSW 6.9 mph - - Rain Light Rain Showers
5:50 PM 42.8 °F 35.8 °F 37.4 °F 81% 29.53 in 6.2 mi WSW 13.8 mph 27.6 mph N/A   Scattered Clouds
6:00 PM 43 °F - 37 °F 73% 29.55 in 12 mi WSW 13.8 mph - -   Mostly Cloudy
6:50 PM 41.0 °F 35.2 °F 35.6 °F 81% 29.53 in 6.2 mi SW 9.2 mph - N/A   Scattered Clouds
7:00 PM 41 °F - 36 °F 77% 29.56 in 28 mi SW 9.2 mph - - Rain Light Rain Showers
10:00 PM 39 °F - 35 °F 78% 29.60 in 25 mi SW 10.4 mph - -   Scattered Clouds
11:00 PM 38 °F - 35 °F 82% 29.61 in 19 mi WSW 12.7 mph - -  
11:50 PM 37.4 °F 30.3 °F 33.8 °F 87% 29.59 in - WSW 10.4 mph - N/A   Clear